Flag for Ukraine Weather past 2 weeks in L'viv, Ukraine

Now
43 °F

Sprinkles. Broken clouds.


Feels Like: 37 °F
Forecast: 32 / 40 °F
Wind: 10 mph from Southwest

Location: L'Viv Airport

Current Time: Mar 2, 2015 at 3:34:08 PM

Latest Report: Mar 2, 2015 at 3:00 PM


Visibility: 5 mi

Pressure: 29.62 "Hg

Humidity: 87%

Dew point: 39 °F

Location of L'vivLocation

Historic Weather in L'viv — Graph

°F

L'viv temperature yesterday

Maximum temperature yesterday: 45 °F (at 1:00 PM)
Minimum temperature yesterday: 37 °F (at 3:30 AM)
Average temperature yesterday: 41 °F

Past Weeks' High & Low Weather Summary

 TemperatureHumidityPressure
High55 °F (Feb 24, 2:00 PM)100% (Feb 15, 2:00 PM)30.74 "Hg (Feb 15, 2:00 PM)
Low12 °F (Feb 18, 6:30 AM)28% (Feb 22, 2:00 PM)29.62 "Hg (Mar 2, 2:30 PM)
Average37 °F80%30.07 "Hg
* Reported Feb 15 2:00 PM — Mar 2 2:30 PM, L'viv, Weather by CustomWeather, © 2015

Note: Actual official high and low records may vary slightly from our data, if they occured in-between our weather recording intervals... More about our weather records

Advertising

L'viv weather history for previous 24 hours

 ConditionsComfort  
Time TempWeatherWind HumidityBarometerVisibility
2:30 PM
Mon, Mar 2
46 °FSprinkles. Broken clouds.6 mph76%29.62 "HgN/A
2:00 PM46 °FSprinkles. Broken clouds.10 mph76%29.65 "HgN/A
1:30 PM48 °FOvercast.10 mph62%29.65 "HgN/A
1:00 PM50 °FPartly sunny.10 mph62%29.65 "HgN/A
12:30 PM50 °FPartly sunny.17 mph62%29.68 "HgN/A
12:00 PM48 °FPartly sunny.15 mph66%29.68 "HgN/A
11:30 AM48 °FPartly sunny.8 mph66%29.68 "HgN/A
11:00 AM46 °FPartly sunny.15 mph71%29.71 "HgN/A
10:30 AM46 °FPartly sunny.10 mph71%29.71 "HgN/A
10:00 AM46 °FSunny.13 mph71%29.71 "Hg10 mi
9:30 AM45 °FSunny.8 mph76%29.71 "Hg10 mi
9:00 AM43 °FSunny.8 mph81%29.74 "Hg10 mi
8:30 AM41 °FClear.6 mph87%29.74 "Hg6 mi
8:00 AM39 °FClear.6 mph93%29.74 "Hg6 mi
7:30 AM39 °FMore clouds than sun.6 mph87%29.74 "Hg5 mi
7:00 AM39 °FOvercast.6 mph93%29.74 "Hg5 mi
6:30 AM41 °FOvercast.6 mph87%29.74 "Hg6 mi
6:00 AM39 °FOvercast.6 mph93%29.74 "Hg5 mi
5:30 AM41 °FOvercast.6 mph87%29.74 "Hg5 mi
5:00 AM41 °FOvercast.6 mph87%29.74 "Hg5 mi
4:30 AM41 °FPartly cloudy.6 mph87%29.74 "Hg5 mi
4:00 AM41 °FPartly cloudy.6 mph87%29.74 "Hg5 mi
3:30 AM39 °FPartly cloudy.6 mph100%29.77 "Hg4 mi
3:00 AM39 °FFog.6 mph100%29.77 "Hg3 mi
2:30 AM39 °FFog.6 mph93%29.77 "Hg3 mi
2:00 AM39 °FFog.6 mph100%29.77 "Hg3 mi
1:30 AM41 °FSprinkles. Fog.6 mph93%29.80 "Hg3 mi
1:00 AM39 °FFog.6 mph100%29.80 "Hg3 mi
12:30 AM39 °FFog.3 mph93%29.80 "Hg2 mi
12:00 AM37 °FFog.3 mph100%29.80 "Hg2 mi
11:30 PM
Sun, Mar 1
39 °FFog.6 mph93%29.80 "Hg2 mi
11:00 PM39 °FFog.3 mph93%29.80 "Hg2 mi
10:30 PM39 °FFog.6 mph100%29.80 "Hg2 mi
9:30 PM41 °FFog.6 mph93%29.83 "Hg2 mi
9:00 PM41 °FFog.6 mph93%29.83 "Hg2 mi
8:30 PM41 °FSprinkles. Fog.6 mph93%29.83 "Hg3 mi
8:00 PM41 °FFog.6 mph100%29.83 "Hg3 mi
7:30 PM41 °FFog.6 mph100%29.83 "Hg3 mi
7:00 PM43 °FFog.6 mph93%29.86 "Hg3 mi
6:30 PM43 °FFog.6 mph93%29.86 "Hg3 mi
6:00 PM43 °FBroken clouds.6 mph93%29.86 "Hg4 mi
5:30 PM43 °FBroken clouds.6 mph93%29.86 "Hg5 mi
5:00 PM45 °FBroken clouds.6 mph87%29.86 "Hg5 mi
4:30 PM45 °FPartly sunny.6 mph87%29.86 "Hg6 mi
4:00 PM45 °FPartly sunny.6 mph87%29.89 "HgN/A
3:30 PM45 °FPartly sunny.6 mph93%29.89 "HgN/A
3:00 PM45 °FSprinkles. Partly sunny.6 mph93%29.89 "HgN/A
Weather by CustomWeather, © 2015

See weather overviewHow to use our weather pages